User: anonymous   Login
Location: Fishcreek Rd Observing Site
(41.1865°N, 81.4271°W)
Time: 06:48:52
(UTC-05:00)
Language:

Iridium 45 - Orbit

View from above orbital plane
View from above orbital plane
View from above satellite
View from above satellite

Ground track
Ground track

The orbit data is extracted from the following two-line orbital elements,

1 25104U 97082A   16039.33338389  .00000365  00000-0  12328-3 0  9990
2 25104  86.3995 134.1381 0003483 106.7091 253.4487 14.34216677949441
Epoch (UTC): 08 February 2016 08:00:04
Eccentricity: 0.0003483
inclination: 86.3995°
perigee height: 775 km
apogee height: 780 km
right ascension of ascending node: 134.1381°
argument of perigee: 106.7091°
revolutions per day: 14.34216677
mean anomaly at epoch: 253.4487°
orbit number at epoch: 94944

The dashed part of the orbit path shows where the satellite is in the earth's shadow,  

DLR